Weather History for Washington, GA

Change the Weather History Date:

Friday, August 22, 2014

  Actual Average (KDBN) Record (KDBN)
Temperature  
Mean Temperature 88 °F -  
Max Temperature 98 °F 93 °F 106 °F (1983)
Min Temperature 77 °F 67 °F 56 °F (1930)
Cooling Degree Days 22    
Growing Degree Days 38 (Base 50)    
Moisture  
Dew Point 75 °F    
Average Humidity 69    
Maximum Humidity 100    
Minimum Humidity 41    
Precipitation  
Precipitation 0.00 in - - ()
Sea Level Pressure  
Sea Level Pressure 30.05 in    
Wind  
Wind Speed 6 mph (WNW)    
Max Wind Speed 12 mph    
Max Gust Speed 20 mph    
Visibility 10 miles    
Events      
Averages and records for this station are not official NWS values.
T = Trace of Precipitation, MM = Missing Value Source: NWS Daily Summary

Daily Weather History Graph

Daily Weather History Graph

Search for Another Location

Airport:

Trip Planner

Search our weather history database for the weather conditions in past years. The results will help you decide how hot, cold, wet, or windy it might be!

Date:

Astronomy

Aug. 22, 2014 Rise Set
Actual Time 6:58 AM EDT 8:09 PM EDT
Civil Twilight 6:32 AM EDT 8:35 PM EDT
Nautical Twilight 6:01 AM EDT 9:06 PM EDT
Astronomical Twilight 5:29 AM EDT 9:38 PM EDT
Moon 4:23 AM EDT 6:14 PM EDT
Length of Visible Light 14h 03m
Length of Day
13h 11m
Waning Crescent, 8% of the Moon is Illuminated
Aug 22
Waning Crescent
Aug 25
New
Sep 2
First Quarter
Sep 8
Full
Sep 15
Last Quarter

Hourly Weather History & Observations

Time (EDT) Temp. Heat Index Dew Point Humidity Pressure Visibility Wind Dir Wind Speed Gust Speed Precip Events Conditions
12:15 AM 80.6 °F 85.4 °F 73.4 °F 79% 30.09 in 10.0 mi West 4.6 mph - N/A   Clear
12:35 AM 80.6 °F 87.1 °F 77.0 °F 89% 30.09 in 10.0 mi West 4.6 mph - N/A   Clear
12:55 AM 80.6 °F 86.2 °F 75.2 °F 84% 30.09 in 10.0 mi West 5.8 mph - N/A   Clear
1:15 AM 80.6 °F 85.4 °F 73.4 °F 79% 30.09 in 10.0 mi West 8.1 mph - N/A   Clear
1:35 AM 80.6 °F 85.4 °F 73.4 °F 79% 30.09 in 10.0 mi West 5.8 mph - N/A   Clear
1:55 AM 80.6 °F 86.2 °F 75.2 °F 84% 30.08 in 10.0 mi NW 4.6 mph - N/A   Clear
2:15 AM 80.6 °F 86.2 °F 75.2 °F 84% 30.08 in 10.0 mi NW 5.8 mph - N/A   Clear
2:35 AM 80.6 °F 87.1 °F 77.0 °F 89% 30.08 in 10.0 mi NW 5.8 mph - N/A   Clear
3:15 AM 80.6 °F 87.1 °F 77.0 °F 89% 30.07 in 10.0 mi NW 4.6 mph - N/A   Clear
3:35 AM 78.8 °F - 77.0 °F 94% 30.07 in 10.0 mi NW 5.8 mph - N/A   Clear
3:55 AM 78.8 °F - 77.0 °F 94% 30.06 in 10.0 mi NW 3.5 mph - N/A   Clear
4:15 AM 78.8 °F - 77.0 °F 94% 30.06 in 10.0 mi Calm Calm - N/A   Clear
4:35 AM 77.0 °F - 75.2 °F 94% 30.06 in 10.0 mi WNW 3.5 mph - N/A   Clear
4:55 AM 77.0 °F - 77.0 °F 100% 30.06 in 10.0 mi West 3.5 mph - N/A   Clear
5:15 AM 77.0 °F - 77.0 °F 100% 30.05 in 10.0 mi West 3.5 mph - N/A   Clear
5:35 AM 77.0 °F - 77.0 °F 100% 30.05 in 10.0 mi WNW 4.6 mph - N/A   Clear
5:55 AM 77.0 °F - 77.0 °F 100% 30.04 in 10.0 mi West 3.5 mph - N/A   Clear
6:15 AM 77.0 °F - 77.0 °F 100% 30.05 in 10.0 mi WNW 3.5 mph - N/A   Clear
6:35 AM 77.0 °F - 77.0 °F 100% 30.05 in 10.0 mi NW 4.6 mph - N/A   Clear
6:55 AM 77.0 °F - 75.2 °F 94% 30.06 in 10.0 mi NW 3.5 mph - N/A   Clear
7:15 AM 77.0 °F - 77.0 °F 100% 30.06 in 10.0 mi NW 4.6 mph - N/A   Clear
7:35 AM 77.0 °F - 77.0 °F 100% 30.08 in 10.0 mi NW 5.8 mph - N/A   Clear
7:55 AM 78.8 °F - 78.8 °F 100% 30.08 in 10.0 mi NW 3.5 mph - N/A   Clear
8:15 AM 80.6 °F 88.1 °F 78.8 °F 94% 30.09 in 10.0 mi NW 4.6 mph - N/A   Clear
8:35 AM 80.6 °F 87.1 °F 77.0 °F 89% 30.09 in 10.0 mi WNW 4.6 mph - N/A   Clear
8:55 AM 84.2 °F 94.1 °F 77.0 °F 79% 30.09 in 10.0 mi NW 5.8 mph - N/A   Clear
9:15 AM 84.2 °F 94.1 °F 77.0 °F 79% 30.09 in 10.0 mi NW 4.6 mph - N/A   Clear
9:35 AM 86.0 °F 96.9 °F 77.0 °F 74% 30.10 in 10.0 mi NW 5.8 mph - N/A   Clear
9:55 AM 87.8 °F 99.7 °F 77.0 °F 70% 30.10 in 10.0 mi WNW 8.1 mph - N/A   Clear
10:15 AM 89.6 °F 102.2 °F 77.0 °F 66% 30.10 in 10.0 mi NW 4.6 mph - N/A   Clear
10:35 AM 89.6 °F 102.2 °F 77.0 °F 66% 30.10 in 10.0 mi NW 6.9 mph - N/A   Clear
10:55 AM 91.4 °F 102.5 °F 75.2 °F 59% 30.10 in 10.0 mi NW 8.1 mph - N/A   Clear
11:15 AM 95.0 °F 109.7 °F 77.0 °F 56% 30.09 in 10.0 mi NW 10.4 mph - N/A   Clear
11:35 AM 95.0 °F 109.7 °F 77.0 °F 56% 30.09 in 10.0 mi WNW 8.1 mph 17.3 mph N/A   Clear
11:55 AM 95.0 °F 109.7 °F 77.0 °F 56% 30.09 in 10.0 mi NW 8.1 mph 17.3 mph N/A   Clear
12:15 PM 96.8 °F 112.2 °F 77.0 °F 53% 30.08 in 10.0 mi NW 11.5 mph - N/A   Clear
12:35 PM 96.8 °F 112.2 °F 77.0 °F 53% 30.08 in 10.0 mi NW 9.2 mph - N/A   Clear
12:55 PM 96.8 °F 112.2 °F 77.0 °F 53% 30.07 in 10.0 mi WNW 11.5 mph 16.1 mph N/A   Clear
1:15 PM 96.8 °F 109.6 °F 75.2 °F 50% 30.06 in 10.0 mi NNW 5.8 mph - N/A   Clear
1:35 PM 96.8 °F 107.3 °F 73.4 °F 47% 30.06 in 10.0 mi WNW 11.5 mph 19.6 mph N/A   Clear
1:55 PM 96.8 °F 105.1 °F 71.6 °F 44% 30.05 in 10.0 mi NW 9.2 mph 18.4 mph N/A   Clear
2:15 PM 98.6 °F 107.7 °F 71.6 °F 42% 30.04 in 10.0 mi WNW 6.9 mph 17.3 mph N/A   Clear
2:35 PM 96.8 °F 105.1 °F 71.6 °F 44% 30.04 in 10.0 mi WNW 8.1 mph - N/A   Clear
2:55 PM 98.6 °F 107.7 °F 71.6 °F 42% 30.03 in 10.0 mi NW 8.1 mph - N/A   Clear
3:15 PM 96.8 °F 105.1 °F 71.6 °F 44% 30.02 in 10.0 mi NW 8.1 mph - N/A   Clear
3:35 PM 98.6 °F 107.7 °F 71.6 °F 42% 30.01 in 10.0 mi NW 9.2 mph - N/A   Clear
3:55 PM 96.8 °F 105.1 °F 71.6 °F 44% 30.01 in 10.0 mi NW 5.8 mph - N/A   Clear
4:15 PM 98.6 °F 107.7 °F 71.6 °F 42% 30.01 in 10.0 mi NNW 8.1 mph - N/A   Clear
4:30 PM 98.6 °F 107.7 °F 71.6 °F 42% 30.01 in 10.0 mi NW 5.8 mph - N/A   Clear
4:55 PM 98.6 °F 107.7 °F 71.6 °F 42% 30.00 in 10.0 mi NW 4.6 mph 16.1 mph N/A   Clear
5:15 PM 98.6 °F 107.7 °F 71.6 °F 42% 29.99 in 10.0 mi West 8.1 mph - N/A   Clear
5:35 PM 98.6 °F 107.7 °F 71.6 °F 42% 29.98 in 10.0 mi NW 8.1 mph - N/A   Clear
5:55 PM 98.6 °F 107.7 °F 71.6 °F 42% 29.98 in 10.0 mi NNW 5.8 mph - N/A   Clear
6:15 PM 96.8 °F 103.1 °F 69.8 °F 41% 29.98 in 10.0 mi NW 8.1 mph - N/A   Clear
6:35 PM 96.8 °F 105.1 °F 71.6 °F 44% 29.98 in 10.0 mi NNW 5.8 mph - N/A   Clear
6:55 PM 96.8 °F 105.1 °F 71.6 °F 44% 29.99 in 10.0 mi NW 5.8 mph - N/A   Clear
7:15 PM 96.8 °F 107.3 °F 73.4 °F 47% 29.99 in 10.0 mi NW 5.8 mph - N/A   Clear
7:55 PM 93.2 °F 102.4 °F 73.4 °F 52% 29.99 in 10.0 mi WNW 3.5 mph - N/A   Clear
8:15 PM 89.6 °F 98.2 °F 73.4 °F 59% 29.99 in 10.0 mi West 3.5 mph - N/A   Clear
8:35 PM 87.8 °F 95.6 °F 73.4 °F 62% 29.98 in 10.0 mi West 3.5 mph - N/A   Clear
8:55 PM 86.0 °F 93.4 °F 73.4 °F 66% 29.98 in 10.0 mi WSW 3.5 mph - N/A   Clear
9:15 PM 86.0 °F 95.1 °F 75.2 °F 70% 29.99 in 10.0 mi West 3.5 mph - N/A   Clear
9:55 PM 84.2 °F 92.3 °F 75.2 °F 74% 29.99 in 10.0 mi WNW 3.5 mph - N/A   Clear
10:15 PM 84.2 °F 90.9 °F 73.4 °F 70% 30.00 in 10.0 mi WNW 4.6 mph - N/A   Clear
10:35 PM 84.2 °F 90.9 °F 73.4 °F 70% 30.00 in 10.0 mi West 4.6 mph - N/A   Clear
10:55 PM 84.2 °F 90.9 °F 73.4 °F 70% 30.00 in 10.0 mi WNW 4.6 mph - N/A   Clear
11:15 PM 84.2 °F 90.9 °F 73.4 °F 70% 30.00 in 10.0 mi WNW 5.8 mph - N/A   Clear
11:35 PM 84.2 °F 90.9 °F 73.4 °F 70% 30.00 in 10.0 mi WNW 5.8 mph - N/A   Clear
11:55 PM 84.2 °F 90.9 °F 73.4 °F 70% 30.01 in 10.0 mi WNW 5.8 mph - N/A   Clear